Temp
64 63 63 63 63 63 63 64 63 63 63 64 64 64 64 64 64 73 75 76 77 72 71 83 83 83 83 78 79 79 71 68 70 69 73 78 75 78 79 79 78 79 79 78 84
63 63 63 63 63 63 63 63 63 63 63 63 64 64 64 64 75 76 74 73 73 71 82 80 79 80 79 77 77 75 70 71 77 78 75 76 77 78 74 76 75 76 79 76 79
63 63 63 63 63 63 63 63 63 63 63 63 63 63 63 67 74 78 72 73 72 74 82 84 83 80 75 77 75 74 70 76 74 75 75 75 74 78 74 74 79 78 80 76 76
62 62 62 62 62 63 63 63 63 63 63 63 63 63 63 74 64 76 72 72 71 81 81 80 79 74 72 70 76 69 72 73 71 71 71 71 76 74 76 79 81 82 82 79 75
61 61 61 61 62 62 63 63 63 63 63 63 63 63 71 72 74 77 69 72 79 79 79 78 76 75 70 74 72 70 71 71 71 69 70 70 71 73 75 81 84 79 76 80 78
60 60 60 60 61 62 62 62 63 62 62 63 64 62 73 67 76 79 77 75 80 79 78 79 78 79 74 71 70 71 70 71 71 71 70 67 72 68 77 80 81 79 77 78 79
60 60 60 60 60 61 61 62 62 62 62 63 64 72 71 71 77 79 76 76 78 80 76 78 80 75 75 68 70 69 66 70 71 70 69 69 65 66 78 77 76 77 76 77 79
60 59 59 60 60 61 61 61 62 62 62 63 63 72 70 74 80 75 78 76 78 79 78 78 79 74 72 72 69 66 66 62 70 66 67 66 63 75 76 76 74 77 79 78 77
59 59 59 59 60 60 61 61 61 62 63 64 68 70 68 70 71 75 78 75 76 77 76 77 76 71 69 66 63 65 60 62 65 68 66 64 65 74 73 72 73 77 79 79 78
59 59 59 59 60 60 60 61 62 62 66 70 71 64 67 66 69 72 76 77 73 72 71 71 71 67 68 65 55 60 59 63 62 64 62 63 62 71 76 74 74 75 79 78 77
59 59 59 59 60 61 61 66 61 60 64 66 65 65 64 67 70 69 73 72 73 70 63 67 63 59 65 68 69 63 62 61 67 66 59 62 64 69 74 74 74 76 76 78 79
59 59 59 60 60 61 65 64 65 63 59 65 63 63 66 69 61 65 71 67 65 61 65 59 56 68 65 64 62 61 59 60 65 66 57 60 61 67 70 71 73 74 76 78 80
57 58 59 59 60 59 64 65 69 66 59 59 63 63 63 65 64 63 68 67 62 60 59 59 63 66 61 58 57 59 57 59 58 62 63 58 56 62 70 72 73 75 77 77 78
55 56 57 59 56 60 58 70 70 68 51 54 56 61 61 65 59 67 70 66 60 58 60 60 66 58 56 56 59 53 64 59 57 54 52 59 49 63 70 70 70 72 73 75 77
54 54 56 57 59 56 59 69 67 61 34 59 51 64 62 61 60 57 67 63 59 57 58 56 54 54 53 57 59 56 57 57 56 53 53 56 50 61 64 64 68 71 74 77 77
55 55 54 56 57 57 59 59 59 41 32 48 53 51 51 55 54 57 58 64 62 59 56 55 57 58 59 55 58 56 54 53 53 54 42 55 54 55 64 68 71 74 71 69 68
55 55 55 57 53 58 57 52 39 32 56 45 47 51 53 50 49 52 51 51 52 46 48 53 53 56 57 51 54 55 52 44 40 40 40 55 52 57 66 71 71 72 72 69 63
55 54 55 57 57 56 51 42 31 37 50 55 52 51 47 51 52 50 48 46 54 55 52 47 45 53 56 57 53 50 53 46 35 39 45 45 43 55 68 71 70 72 74 69 66
53 58 55 57 55 57 43 32 33 38 50 49 49 45 44 48 50 49 50 50 55 55 49 49 48 56 54 58 59 50 44 56 45 37 38 48 56 64 67 65 69 70 69 66 67
56 54 54 56 55 52 39 34 38 44 46 48 43 48 40 44 45 47 48 53 51 56 59 52 44 50 51 55 56 53 59 44 45 33 33 46 49 53 60 64 68 66 68 70 68
53 48 53 58 55 47 35 41 46 50 45 42 42 41 41 40 42 40 41 46 50 50 55 51 44 42 48 47 49 48 46 49 50 47 38 38 47 63 63 62 61 64 62 62 65
49 43 54 57 43 43 38 43 47 49 50 45 44 43 43 43 40 39 41 48 53 53 45 48 39 34 40 49 50 49 50 51 39 39 44 43 45 62 62 58 59 60 63 59 61
45 46 53 49 38 39 41 42 45 46 48 47 45 49 46 43 39 43 45 50 53 47 47 47 36 33 35 41 47 42 48 48 48 39 34 34 44 59 62 63 64 60 60 60 57
44 38 43 43 48 44 40 40 38 46 46 49 48 50 47 45 49 44 44 46 51 48 45 49 37 35 36 37 43 37 42 47 44 33 38 38 45 54 57 59 63 65 67 64 61
43 40 44 34 37 42 46 45 40 36 44 47 44 47 46 42 44 43 47 44 45 45 45 43 33 35 37 39 37 35 35 39 38 39 33 43 46 52 58 60 62 64 64 64 61
41 39 41 39 43 40 42 41 40 42 41 40 42 45 46 42 44 39 44 44 43 45 45 46 33 35 32 39 39 35 40 40 41 44 45 45 44 56 60 62 61 61 61 61 62
46 46 44 38 36 37 39 40 41 45 41 46 45 41 41 45 46 44 45 43 42 39 39 37 34 32 30 37 33 30 36 40 43 45 45 40 49 55 54 55 55 55 56 57 59
MSLP
1015.77 1015.80 1016.03 1015.91 1015.86 1015.91 1015.89 1015.91 1015.73 1015.82 1015.83 1015.73 1015.57 1015.44 1015.45 1015.29 1015.13 1014.95 1013.89 1013.66 1013.45 1013.59 1013.58 1013.16 1013.00 1012.83 1012.72 1012.46 1012.47 1012.01 1010.79 1009.80 1009.69 1010.10 1010.06 1010.98 1011.26 1011.93 1012.34 1012.19 1012.74 1013.12 1013.35 1014.07 1014.33
1015.67 1015.65 1015.80 1015.81 1015.67 1015.82 1016.02 1016.00 1015.90 1015.80 1015.78 1015.73 1015.53 1015.35 1015.24 1015.23 1014.65 1013.88 1013.55 1013.52 1013.68 1013.74 1013.38 1012.91 1012.55 1012.72 1012.21 1012.26 1012.34 1011.76 1010.87 1010.07 1010.37 1010.44 1010.71 1011.31 1011.43 1011.59 1012.29 1012.23 1012.52 1013.00 1013.83 1014.73 1014.93
1015.63 1015.56 1015.66 1015.75 1015.69 1015.75 1015.88 1015.91 1015.81 1015.76 1015.66 1015.63 1015.54 1015.36 1015.02 1014.84 1014.14 1012.79 1013.39 1013.54 1013.74 1013.71 1013.45 1012.89 1012.51 1012.52 1012.06 1012.22 1012.17 1011.78 1011.11 1010.81 1011.40 1011.75 1011.85 1011.64 1011.88 1011.95 1011.89 1011.48 1011.67 1011.92 1012.75 1014.31 1014.72
1015.46 1015.61 1015.49 1015.57 1015.62 1015.74 1015.90 1015.80 1015.70 1015.59 1015.45 1015.34 1015.33 1015.26 1014.99 1014.63 1013.74 1013.29 1013.58 1013.67 1013.82 1013.53 1013.31 1012.90 1012.65 1012.36 1011.95 1011.89 1012.02 1012.01 1011.92 1012.02 1012.38 1012.77 1012.76 1012.46 1012.13 1011.76 1011.69 1011.14 1011.60 1011.89 1012.38 1013.34 1014.16
1015.29 1015.55 1015.43 1015.45 1015.54 1015.63 1015.82 1015.83 1015.65 1015.44 1015.42 1015.31 1015.11 1015.02 1014.88 1013.91 1012.98 1013.44 1013.80 1013.90 1013.69 1013.56 1013.03 1012.68 1012.38 1012.04 1011.82 1011.72 1012.36 1012.17 1012.15 1012.58 1012.98 1013.31 1013.27 1013.32 1012.69 1012.11 1011.36 1011.25 1011.51 1012.25 1012.81 1012.93 1013.54
1015.27 1015.44 1015.20 1015.27 1015.57 1015.50 1015.61 1015.76 1015.62 1015.40 1015.31 1015.28 1015.08 1014.90 1014.34 1013.58 1013.38 1013.35 1013.62 1013.84 1013.41 1013.29 1012.94 1012.76 1012.17 1012.20 1011.99 1012.26 1012.47 1012.54 1012.70 1012.66 1013.01 1013.21 1013.40 1013.39 1012.66 1012.82 1011.05 1011.15 1011.15 1011.73 1012.39 1012.72 1012.98
1014.68 1015.01 1014.94 1015.25 1015.54 1015.42 1015.40 1015.62 1015.65 1015.54 1015.33 1015.22 1015.04 1014.46 1013.84 1013.40 1013.33 1013.40 1013.69 1013.56 1013.67 1013.24 1012.97 1013.10 1012.77 1012.68 1012.61 1012.81 1013.23 1013.03 1012.74 1012.58 1012.65 1013.13 1013.33 1013.50 1012.63 1011.65 1010.92 1011.25 1011.21 1011.39 1011.94 1012.21 1012.40
1014.41 1014.49 1014.66 1015.27 1015.37 1015.34 1015.32 1015.51 1015.64 1015.52 1015.34 1015.15 1015.07 1014.39 1013.16 1013.56 1013.30 1013.57 1013.59 1013.61 1013.72 1013.59 1013.39 1013.48 1013.26 1013.13 1012.88 1013.33 1013.15 1012.74 1012.64 1011.97 1012.04 1013.16 1013.48 1013.58 1011.34 1010.32 1010.69 1010.73 1010.75 1010.79 1010.89 1011.38 1011.96
1013.95 1013.96 1014.70 1015.12 1015.07 1015.22 1015.28 1015.45 1015.58 1015.44 1015.35 1015.05 1014.87 1014.16 1013.12 1013.89 1013.58 1013.50 1013.53 1013.34 1013.63 1013.71 1013.81 1013.71 1013.42 1013.23 1013.48 1012.76 1012.42 1012.21 1011.50 1011.62 1011.94 1012.90 1013.12 1013.16 1011.02 1010.34 1010.90 1010.81 1010.37 1010.15 1010.18 1010.42 1010.99
1013.45 1013.77 1014.48 1014.71 1014.81 1014.99 1015.29 1015.58 1015.46 1015.31 1015.16 1014.77 1014.48 1014.40 1013.54 1013.24 1013.51 1013.64 1013.73 1013.61 1013.49 1013.63 1013.75 1013.57 1013.22 1012.99 1012.68 1012.15 1011.16 1011.00 1011.42 1011.49 1011.90 1012.66 1013.23 1012.54 1011.23 1010.70 1010.30 1010.22 1009.76 1009.69 1009.49 1009.70 1010.04
1013.27 1013.78 1014.22 1014.41 1014.58 1015.09 1015.63 1015.55 1015.57 1015.14 1014.63 1013.18 1012.97 1012.88 1013.05 1013.78 1013.97 1013.70 1013.75 1013.68 1013.47 1013.36 1013.14 1013.44 1012.94 1012.12 1011.85 1011.64 1011.40 1011.81 1011.71 1011.53 1011.62 1012.51 1013.16 1012.14 1010.86 1010.17 1009.84 1009.52 1008.99 1008.76 1008.92 1008.70 1008.71
1013.12 1013.62 1014.06 1014.47 1014.56 1014.95 1015.15 1014.09 1013.61 1014.16 1013.51 1013.24 1013.42 1013.31 1013.37 1013.36 1013.59 1013.77 1013.91 1013.43 1013.32 1012.88 1013.14 1013.68 1012.57 1012.00 1012.31 1012.35 1012.39 1012.47 1012.36 1012.08 1012.04 1012.49 1013.33 1012.10 1010.66 1009.55 1009.05 1008.70 1008.22 1008.11 1007.84 1007.56 1007.74
1012.84 1013.21 1013.64 1013.90 1014.12 1014.88 1014.52 1013.80 1013.63 1013.75 1013.41 1013.01 1012.94 1012.89 1013.04 1013.49 1012.95 1013.21 1013.59 1013.06 1012.99 1012.80 1013.08 1012.56 1012.35 1012.49 1012.93 1013.22 1013.18 1012.87 1012.70 1012.60 1012.60 1012.85 1012.43 1011.96 1009.68 1008.68 1007.33 1007.52 1007.44 1007.33 1007.08 1007.22 1007.36
1013.02 1013.44 1013.68 1013.74 1014.68 1014.32 1014.24 1013.54 1013.64 1013.86 1013.59 1012.52 1012.70 1012.20 1012.90 1013.07 1013.23 1013.26 1013.34 1013.29 1013.41 1012.84 1013.16 1012.96 1012.66 1013.25 1013.39 1013.30 1013.53 1013.25 1012.89 1013.47 1013.46 1013.65 1012.15 1012.10 1008.49 1007.54 1006.92 1006.42 1006.82 1006.74 1006.58 1006.51 1007.03
1013.56 1013.58 1013.43 1014.04 1013.64 1013.96 1014.29 1013.49 1014.14 1014.30 1013.10 1011.17 1012.37 1012.73 1012.49 1012.63 1012.80 1013.75 1013.86 1013.63 1012.97 1013.05 1013.40 1012.81 1013.33 1013.59 1013.62 1013.46 1014.04 1013.87 1014.13 1014.15 1014.15 1013.80 1013.00 1011.42 1010.53 1006.73 1006.34 1006.10 1006.15 1006.01 1005.93 1006.27 1006.72
1013.81 1013.84 1013.98 1013.85 1014.04 1014.45 1014.24 1014.26 1014.94 1014.58 1011.85 1011.46 1011.90 1012.20 1012.77 1013.14 1013.28 1013.84 1014.00 1013.82 1013.62 1013.32 1013.57 1013.53 1014.12 1013.93 1013.75 1014.44 1014.55 1014.95 1014.90 1014.99 1014.83 1014.07 1012.74 1010.80 1010.10 1004.76 1005.57 1005.13 1005.01 1005.34 1006.00 1006.69 1007.69
1013.90 1013.96 1014.04 1014.02 1014.10 1014.41 1014.09 1014.89 1012.88 1012.02 1010.29 1011.11 1011.29 1011.95 1012.04 1012.83 1013.35 1013.33 1013.57 1013.38 1012.96 1013.37 1012.91 1013.44 1013.84 1014.18 1014.33 1014.67 1015.31 1014.98 1014.71 1014.53 1014.41 1013.83 1011.61 1010.75 1009.57 1005.34 1005.69 1005.56 1005.77 1005.56 1006.10 1007.09 1008.47
1014.05 1014.10 1014.23 1014.08 1014.08 1014.08 1014.14 1015.18 1013.49 1011.76 1010.24 1010.32 1011.02 1011.57 1011.88 1012.45 1012.72 1013.23 1013.38 1013.13 1012.94 1012.34 1012.07 1012.36 1012.87 1013.40 1013.76 1013.27 1013.78 1014.34 1013.82 1013.34 1012.91 1012.81 1011.76 1011.48 1008.71 1006.09 1005.77 1005.82 1005.83 1005.81 1006.14 1007.26 1008.19
1014.23 1014.15 1014.23 1014.11 1014.14 1013.93 1015.04 1014.98 1013.48 1012.46 1011.33 1010.93 1011.57 1011.46 1011.97 1012.32 1012.54 1012.88 1012.79 1012.40 1012.13 1012.46 1012.12 1012.04 1012.39 1012.97 1013.70 1013.49 1013.58 1014.18 1013.99 1013.57 1013.56 1013.54 1013.01 1010.32 1007.63 1006.26 1005.86 1006.06 1005.90 1006.09 1006.33 1006.93 1008.18
1014.06 1014.15 1013.80 1014.06 1014.09 1014.15 1014.92 1014.34 1013.53 1013.29 1012.42 1011.46 1011.02 1011.16 1011.66 1012.31 1012.65 1012.84 1012.67 1012.16 1012.42 1012.29 1012.37 1012.64 1013.31 1013.90 1014.28 1014.37 1014.03 1013.90 1013.22 1014.00 1013.93 1013.38 1012.16 1009.08 1007.56 1005.97 1005.80 1005.62 1005.93 1006.32 1006.72 1007.10 1008.03
1014.48 1013.86 1013.88 1014.05 1014.17 1014.19 1013.98 1013.18 1012.80 1012.36 1012.75 1012.41 1011.70 1011.71 1011.92 1012.34 1012.62 1012.98 1013.06 1013.18 1013.11 1013.19 1013.37 1013.70 1014.50 1015.10 1015.07 1014.50 1013.69 1014.31 1014.01 1013.73 1013.30 1012.93 1011.81 1009.62 1007.04 1006.05 1006.15 1006.67 1007.16 1007.36 1007.90 1008.36 1008.46
1014.47 1013.87 1013.93 1013.98 1014.06 1013.53 1013.24 1012.73 1012.54 1011.96 1012.44 1013.09 1012.48 1012.03 1011.82 1012.18 1012.41 1013.00 1013.11 1012.94 1013.47 1013.66 1014.05 1014.86 1015.68 1015.75 1015.31 1014.84 1014.75 1014.72 1013.91 1013.84 1013.97 1013.40 1012.60 1011.17 1006.28 1006.86 1007.23 1007.89 1008.20 1008.21 1008.42 1009.15 1009.51
1014.22 1013.85 1014.10 1014.22 1012.93 1012.71 1012.97 1012.78 1012.47 1012.23 1011.92 1012.22 1012.18 1011.96 1012.44 1012.24 1012.53 1012.79 1013.26 1013.72 1013.85 1014.52 1014.57 1015.30 1016.03 1016.28 1016.17 1016.04 1015.75 1015.66 1014.82 1014.78 1014.76 1015.13 1013.88 1012.71 1007.78 1007.89 1007.29 1007.80 1008.15 1008.49 1009.08 1009.53 1009.90
1014.23 1013.76 1014.02 1013.98 1012.61 1012.01 1012.46 1012.42 1012.65 1012.53 1012.25 1012.04 1011.85 1011.91 1011.90 1011.88 1012.05 1012.40 1013.29 1014.25 1014.41 1014.95 1015.41 1015.56 1016.31 1016.30 1016.10 1016.11 1015.94 1016.00 1015.51 1015.28 1015.54 1015.21 1013.99 1012.10 1009.75 1008.79 1008.48 1008.12 1008.37 1008.45 1008.60 1009.03 1009.59
1013.89 1012.95 1012.75 1012.84 1012.61 1012.47 1011.99 1011.85 1012.40 1012.53 1012.84 1012.58 1012.40 1012.00 1011.87 1012.13 1012.49 1012.85 1013.43 1014.62 1015.40 1015.72 1015.97 1016.41 1016.92 1017.21 1017.11 1017.02 1016.93 1016.57 1016.22 1016.01 1015.59 1015.15 1014.60 1012.01 1010.81 1009.30 1009.16 1008.94 1008.99 1009.05 1009.06 1009.10 1009.53
1013.04 1013.07 1013.35 1012.82 1012.33 1012.70 1012.05 1011.57 1011.95 1012.21 1012.69 1012.83 1012.57 1012.56 1012.62 1012.74 1013.11 1013.80 1014.24 1014.92 1015.40 1016.17 1016.35 1016.68 1017.39 1017.71 1017.32 1017.05 1016.80 1016.32 1015.41 1015.34 1015.12 1014.41 1013.65 1012.54 1011.27 1009.33 1009.78 1010.01 1009.77 1009.48 1009.38 1009.52 1009.66
1013.04 1013.25 1012.83 1012.72 1012.56 1012.29 1011.55 1011.81 1011.91 1012.52 1013.48 1012.97 1013.03 1013.37 1013.62 1013.72 1014.54 1015.48 1015.87 1016.24 1016.47 1016.91 1017.32 1017.77 1017.93 1018.13 1017.12 1016.72 1016.79 1015.72 1013.30 1013.87 1013.46 1013.46 1013.12 1012.38 1010.73 1010.36 1010.57 1010.78 1010.93 1010.79 1010.84 1010.47 1010.10
Wind_Speed
9 9 8 6 4 2 2 1 3 2 3 5 5 5 7 8 2 5 6 2 1 4 2 5 5 4 5 3 2 2 6 8 9 7 5 6 10 4 4 3 4 5 2 5 14
11 10 9 7 7 5 3 2 1 2 3 6 7 7 7 7 6 8 5 3 3 3 6 9 8 7 5 3 3 6 8 8 4 3 3 7 10 7 6 9 9 9 6 5 12
10 10 9 8 6 6 5 3 1 1 3 5 7 8 7 6 5 2 4 3 2 4 5 6 4 8 7 3 6 3 8 3 2 0 2 4 7 5 8 10 10 11 13 12 14
9 9 9 8 6 5 4 3 1 1 3 5 7 8 7 5 4 4 2 3 2 4 7 6 7 6 6 8 5 7 2 2 2 2 2 4 3 7 13 12 3 6 3 16 16
9 9 8 7 6 4 4 3 2 2 5 6 7 8 5 7 2 5 2 3 5 5 9 9 10 9 9 6 5 8 2 2 2 2 4 1 7 10 12 12 10 3 4 12 14
11 10 8 7 6 5 4 5 4 3 5 8 8 10 6 9 3 3 3 2 4 7 7 8 6 4 1 3 8 3 3 2 3 5 4 5 9 3 5 6 14 12 11 11 14
11 10 8 8 7 6 4 4 5 5 6 8 8 5 6 2 2 2 3 1 1 4 6 1 2 6 5 4 2 1 5 6 9 6 3 3 10 16 16 8 7 10 13 13 14
13 11 8 8 8 6 4 4 5 6 7 6 7 4 5 2 2 4 4 4 3 2 3 3 2 5 1 5 4 4 3 8 7 6 3 6 11 7 2 5 12 13 13 13 15
13 11 10 10 7 6 5 3 5 6 6 5 4 5 3 3 5 5 3 5 6 5 4 4 1 2 5 7 6 7 9 8 5 7 3 11 8 1 1 6 9 9 11 12 14
12 12 12 10 9 6 4 4 2 4 4 3 2 4 6 4 5 5 3 6 3 8 6 5 5 8 8 9 11 10 9 7 9 6 7 10 18 16 13 13 16 16 15 12 14
13 12 12 10 9 9 6 4 4 4 6 5 3 1 4 4 3 5 4 7 5 9 10 6 10 11 14 16 14 4 5 9 8 4 4 12 20 19 17 17 19 18 17 19 20
13 13 13 12 10 9 8 5 1 4 5 12 2 2 2 2 4 7 6 11 9 12 7 5 14 13 4 3 4 8 12 14 12 8 4 14 20 21 21 17 21 20 20 20 18
11 8 9 10 9 5 9 8 3 1 5 4 6 5 4 7 3 12 12 6 9 15 14 17 2 8 8 6 9 12 14 13 13 10 15 12 18 18 17 12 16 20 22 20 18
9 7 7 5 5 6 6 6 3 2 6 8 8 6 7 6 5 2 11 4 5 14 14 12 8 6 9 12 12 13 9 12 11 7 8 1 13 15 15 16 12 14 14 16 15
9 5 5 6 6 5 1 4 3 1 7 10 5 4 6 11 11 5 4 4 10 10 7 5 9 11 12 9 10 1 3 5 5 8 12 15 11 5 1 9 11 16 14 11 9
9 5 3 2 0 3 3 5 3 7 13 9 7 9 9 5 4 5 7 1 4 6 5 3 2 5 3 5 7 11 7 4 2 6 9 13 13 16 13 10 7 10 4 2 4
7 7 3 0 3 5 5 2 7 8 11 10 10 10 16 10 6 7 14 14 12 9 15 10 9 4 4 7 5 10 8 4 6 7 10 3 8 18 9 17 14 12 11 4 5
6 6 2 1 2 2 5 3 6 3 15 9 9 15 12 12 11 9 12 11 18 13 5 13 10 17 15 16 9 15 13 8 8 8 11 4 12 7 2 3 8 11 11 6 9
4 1 2 2 2 3 6 3 0 3 7 10 13 13 8 9 6 12 15 11 11 16 12 11 11 10 3 4 11 7 10 8 9 2 5 12 20 20 16 14 13 15 12 13 9
1 2 2 4 3 3 4 4 4 3 6 7 11 7 11 14 11 13 14 3 6 13 15 1 5 1 4 3 5 8 5 6 6 6 9 13 16 12 9 11 10 12 12 11 8
3 4 5 5 4 2 5 9 7 11 2 3 2 5 5 8 6 6 6 3 3 4 5 4 2 5 4 10 12 8 9 7 3 9 5 10 13 5 10 11 10 12 11 12 12
1 5 3 8 8 4 5 4 3 8 12 7 6 6 5 11 5 7 10 3 5 6 8 10 3 4 6 2 7 7 9 16 6 8 8 9 22 5 8 6 7 10 9 9 8
3 0 3 3 9 8 3 4 2 4 10 7 11 15 12 6 5 7 7 2 8 8 10 10 3 3 2 3 3 7 11 13 11 2 8 4 11 2 11 6 6 6 8 7 4
3 5 3 3 7 10 11 11 8 1 1 2 3 4 7 8 10 9 10 3 6 5 3 5 2 4 3 6 4 4 6 10 14 5 5 17 22 20 21 21 18 16 15 8 3
3 4 1 8 11 9 15 11 17 9 3 5 5 10 12 7 10 7 9 7 3 8 3 5 3 4 5 6 4 3 8 12 12 17 9 16 21 15 16 15 17 16 16 14 12
5 4 3 2 13 16 12 15 18 14 11 10 9 13 7 8 7 6 5 2 4 7 5 4 1 1 4 8 11 13 19 19 20 22 22 23 26 22 20 16 18 17 17 16 15
3 1 3 5 5 12 14 12 15 15 2 1 11 7 9 7 7 8 6 5 5 5 3 2 3 2 5 3 4 8 17 20 19 18 17 20 23 22 17 12 13 16 16 17 15
Wind_Direction
200 190 194 182 177 171 141 87 85 28 355 343 347 349 336 335 303 214 244 63 87 119 272 145 194 171 212 164 266 287 245 236 234 234 244 147 202 165 21 217 208 180 311 61 130
202 193 190 188 174 170 170 147 66 26 353 341 339 340 335 327 254 247 101 103 113 155 204 192 186 186 185 182 198 236 239 248 17 252 263 182 217 186 203 206 219 209 180 150 156
209 194 190 192 189 188 185 179 151 1 347 339 335 330 329 297 264 161 106 132 169 209 268 247 266 213 225 204 188 187 246 58 146 167 279 202 221 219 219 233 236 223 199 179 184
209 208 192 192 193 204 221 210 202 309 333 339 334 328 322 224 236 78 95 140 165 235 213 192 200 208 230 218 179 234 235 297 68 131 196 219 298 246 233 245 47 301 329 173 195
208 209 201 197 200 210 238 253 270 322 328 332 331 329 264 212 259 103 117 152 186 184 204 200 211 221 229 224 195 235 163 191 116 178 237 324 246 264 268 245 234 181 192 197 205
204 210 204 199 211 206 237 274 289 312 326 327 326 316 247 237 70 105 115 161 219 202 196 209 241 210 253 238 236 53 234 216 211 221 223 245 253 297 236 245 238 223 231 218 218
195 205 203 207 218 215 227 270 294 308 319 322 326 300 248 289 42 122 154 112 215 241 186 190 180 219 156 166 152 194 257 218 222 218 232 240 245 238 253 199 241 233 233 235 227
194 192 201 213 212 211 222 266 292 306 309 310 312 267 272 69 99 163 173 126 130 102 100 113 191 116 291 124 171 230 242 246 123 180 164 217 266 217 21 234 253 250 248 228 228
194 181 199 204 205 215 210 250 280 296 288 283 249 253 215 137 177 142 210 176 131 113 88 130 133 136 170 216 213 203 258 211 198 202 176 213 278 154 182 237 262 269 264 241 234
188 184 193 197 187 198 217 241 231 248 231 217 243 226 160 179 134 148 140 170 155 145 138 184 192 213 222 215 229 242 219 231 259 142 228 235 255 270 257 251 266 272 266 243 238
183 186 187 192 186 180 185 188 191 189 225 233 170 342 128 95 174 172 164 160 151 200 205 204 219 216 224 227 251 308 281 280 278 124 279 263 274 272 273 272 269 264 260 254 244
182 188 184 191 180 182 237 233 328 14 229 222 278 212 132 212 148 173 183 185 192 204 194 184 228 235 13 9 209 243 263 266 278 293 240 275 274 280 269 256 257 260 257 252 250
118 125 164 180 164 166 219 221 132 247 282 180 205 211 173 181 206 175 188 189 207 210 205 229 213 239 197 201 223 238 251 260 261 307 255 269 272 247 255 248 256 255 257 261 258
78 121 152 150 154 154 212 222 166 272 248 204 203 190 159 179 220 117 200 203 204 212 217 242 219 156 205 234 223 258 244 250 265 272 276 10 289 290 285 260 240 251 250 251 251
81 33 110 205 135 181 129 175 113 300 247 152 153 87 152 189 124 171 155 191 195 179 179 172 187 203 218 225 192 255 79 205 229 247 291 260 271 277 324 243 249 254 260 262 264
81 46 280 138 171 45 26 99 138 193 222 169 135 163 147 189 133 114 171 166 339 196 233 315 9 208 225 81 199 130 116 117 208 254 253 259 235 281 255 299 228 272 282 276 217
28 25 344 355 138 103 85 147 214 214 150 168 170 171 182 172 153 173 181 186 182 189 219 192 208 165 175 124 138 194 173 214 224 197 255 355 242 251 286 296 281 291 300 194 175
12 350 46 325 179 146 54 267 226 203 210 114 154 162 176 162 189 175 172 200 224 233 254 209 208 189 192 216 180 200 205 219 243 244 273 104 239 259 270 312 294 274 278 281 208
342 276 234 170 228 122 86 261 15 277 283 147 150 159 181 174 201 180 199 210 203 205 212 208 228 156 165 221 221 174 217 255 280 58 278 254 264 270 250 248 262 262 248 242 245
261 236 202 143 193 134 112 242 221 250 313 178 182 191 174 175 166 199 181 196 206 206 237 208 238 79 120 187 237 238 163 182 211 225 238 255 262 269 263 256 265 264 276 276 255
242 218 107 166 180 170 214 209 209 186 247 339 221 155 173 162 150 169 183 157 175 196 215 154 283 91 163 205 187 179 221 230 264 230 253 275 260 36 7 32 6 346 357 342 318
247 223 120 178 188 203 196 192 241 182 176 227 335 32 151 159 142 157 200 107 155 151 161 172 133 196 206 15 6 319 235 220 219 212 232 264 268 39 39 29 3 356 345 350 330
223 308 126 274 209 206 141 163 263 193 183 191 215 211 184 202 158 190 196 172 137 164 180 157 191 155 177 206 198 229 230 236 259 70 226 231 265 87 105 8 8 337 345 343 352
191 178 163 243 273 225 190 183 188 312 235 189 182 192 177 211 218 170 176 123 138 131 138 117 163 224 265 78 50 187 253 234 226 214 247 230 268 265 300 316 316 313 318 322 318
211 228 150 196 216 220 206 191 194 181 245 210 199 218 201 200 199 205 160 128 119 153 126 139 203 193 250 245 177 209 255 265 249 246 247 268 269 262 280 309 323 326 306 298 298
186 195 197 318 211 204 213 213 206 185 174 210 231 198 194 198 189 186 188 183 128 167 182 173 267 206 254 239 247 248 246 244 252 246 246 255 260 276 285 300 294 292 293 294 291
191 176 224 156 198 197 209 213 211 194 60 226 193 147 196 207 114 111 79 97 103 127 108 59 143 169 264 86 78 265 245 231 239 243 246 253 262 290 292 304 329 334 340 326 317